Overview Statistics Trail Chart Weather Telemetry Raw packets
 

This is the latest recevied weather packets stored in our database for station/object N5DGC. If no packets are shown the sender has not sent any weather packets the latest 10 day(s).

<< 111 112 113 114 >>
Time Temp. Humidity Pressure Rain* Wind** Luminosity Snow
1787763255 32.22° C 29% 1246 hPa 0 mm - 764 W/m² -
1787762949 31.67° C 30% 1245.9 hPa 0 mm - 755 W/m² -
1787762649 30° C 32% 1245.9 hPa 0 mm - 743 W/m² -
1787762347 30° C 33% 1245.9 hPa 0 mm - 729 W/m² -
1787762046 30° C 32% 1246 hPa 0 mm - 711 W/m² -
1787761746 30° C 33% 1245.9 hPa 0 mm - 692 W/m² -
1787761441 30° C 33% 1246.2 hPa 0 mm - 676 W/m² -
1787761136 30.56° C 32% 1246 hPa 0 mm - 663 W/m² -
1787760835 30° C 34% 1246 hPa 0 mm - 644 W/m² -
1787760533 29.44° C 35% 1246.2 hPa 0 mm - 626 W/m² -
1787760228 28.89° C 36% 1246.3 hPa 0 mm - 615 W/m² -
1787759924 28.33° C 36% 1246 hPa 0 mm - 605 W/m² -
1787759619 27.78° C 37% 1246 hPa 0 mm - 591 W/m² -
1787759316 27.78° C 39% 1246 hPa 0 mm - 572 W/m² -
1787759016 27.78° C 38% 1245.9 hPa 0 mm - 551 W/m² -
1787758716 27.78° C 38% 1246 hPa 0 mm - 533 W/m² -
1787758411 26.67° C 40% 1245.8 hPa 0 mm - 509 W/m² -
1787758110 26.67° C 40% 1245.9 hPa 0 mm - 481 W/m² -
1787757807 26.11° C 42% 1245.9 hPa 0 mm - 450 W/m² -
1787757507 25.56° C 42% 1245.9 hPa 0 mm - 425 W/m² -
1787757201 25.56° C 43% 1245.8 hPa 0 mm - 407 W/m² -
1787756900 25° C 44% 1245.7 hPa 0 mm - 351 W/m² -
1787756596 24.44° C 45% 1245.8 hPa 0 mm - 353 W/m² -
1787756297 23.89° C 46% 1245.7 hPa 0 mm - 142 W/m² -

* Rain latest hour (hover to see other rain measurements)
** Current wind speed in m/s (hover to see current wind gust speed)